[[{"header":{"parameterUnit":"m.s-1","parameterCategory":1,"la1":30.2991,"la2":30.254,"lo1":-89.0895,"lo2":-89.0444,"dy":0.0017,"dx":0.0017,"nx":28,"ny":28,"refTime":"2026-02-16T09:00:00:Z","depth":0,"parameterNumber":2,"parameterNumberName":"U-component_of_WINDS"},"data":[0,0,0,0,0,0,0,0,0,0,0,0,0,0,0,0,0,0,0,0,0,0,0,0,0,0,0,0,0,0,0,0,0,0,0,0,0,0,0,0,0,0,0,0,0,0,0,0,0,0,0,0,0,0,0,0,0,0,-1.0096,-1.0095,0,-1.0018,-1.0018,-1.0017,-0.9979,-0.9979,-0.9979,-0.9979,-0.9905,-0.9903,-0.9901,0,0,0,0,0,0,0,0,0,0,0,0,0,-1.0216,-1.0214,-1.0096,-1.0095,-1.0094,-1.0019,-1.0018,-1.0017,-0.9979,-0.9979,-0.9979,-0.9979,-0.9905,-0.9903,-0.9901,0,0,0,0,0,0,0,0,0,0,0,0,0,-1.0154,-1.0214,-1.0097,-1.0066,-1.0063,-1.0019,-1.0018,-1.0016,-0.9979,-0.9979,-0.9979,-0.9979,-0.9906,-0.9903,-0.99,-0.9882,0,0,-0.9891,-0.989,0,0,0,0,0,0,0,0,-1.0158,-1.015,-1.0072,-1.0068,-1.0064,-1.0008,-1.0033,-0.9971,-0.9979,-1.0011,-0.9979,-0.9979,-0.994,-0.9934,-0.9919,-0.9878,-0.9875,-0.9891,-0.9889,-0.9888,-0.9887,0,0,0,0,0,0,0,-1.0162,-1.0153,-1.0066,-1.0071,-1.0066,-1.0058,-1.0049,-1.0021,-0.9976,-1.0008,-1.0005,-0.9996,-0.9938,-0.9922,-0.9917,-0.9874,-0.9891,-0.9888,-0.9886,-0.9885,-0.9813,-0.9813,0,0,0,0,0,0,-1.0171,-1.0157,-1.0068,-1.0063,-1.0112,-1.0056,-1.0046,-1.0027,-0.9977,-0.9969,-0.9997,-0.9995,-0.9927,-0.9921,-0.9915,-0.9889,-0.9888,-0.9885,-0.9883,-0.9813,-0.9813,-0.9813,0,0,0,0,0,0,-1.0173,-1.0163,-1.0071,-1.0109,-1.0097,-1.0054,-1.0032,-1.0025,-1.001,-0.9968,-0.996,-0.9989,-0.9927,-0.9919,-0.989,-0.9886,-0.9884,-0.9881,-0.9813,-0.9813,-0.9813,-0.9837,0,0,0,0,0,0,-1.0177,-1.0164,-1.0156,-1.0109,-1.0095,-1.0046,-1.0032,-1.0023,-1.0004,-1.0001,-0.9958,-0.9951,-0.9927,-0.9894,-0.9887,-0.9881,-0.9879,-0.9813,-0.9813,-0.9813,-0.9837,-0.9838,-0.9839,0,0,0,0,0,-1.0181,-1.0168,-1.0156,-1.0145,-1.0083,-1.0046,-1.0038,-1.0008,-1.0004,-0.9995,-0.9968,-0.9953,-0.9887,-0.9891,-0.9883,-0.9877,-0.9813,-0.9813,-0.9813,-0.9836,-0.9838,-0.9839,0,0,0,0,0,0,-1.0217,-1.0161,-1.0147,-1.0117,-1.0087,-1.004,-1.0029,-1.0011,-0.9983,-0.9982,-0.9948,-0.9938,-0.9912,-0.9891,-0.9897,-0.9855,-0.9849,-0.9847,-0.987,-0.9871,-0.9872,-0.9878,-0.9876,0,0,0,0,0,-1.0221,-1.0194,-1.0147,-1.0125,-1.011,-1.0072,-1.0055,-1.0034,-1.0002,-0.9989,-0.996,-0.9931,-0.9903,-0.9886,-0.9859,-0.9834,-0.9824,-0.9825,-0.9826,-0.9827,-0.9826,-0.9811,-0.981,-0.9811,-0.9811,-0.9811,0,0,-1.023,-1.0196,-1.0181,-1.0132,-1.0105,-1.0079,-1.0062,-1.0035,-1.0016,-0.9986,-0.9955,-0.9933,-0.9898,-0.987,-0.9857,-0.9853,-0.9823,-0.9827,-0.9828,-0.9826,-0.981,-0.981,-0.981,-0.9811,-0.9811,-0.9811,0,0,-1.0232,-1.0204,-1.0182,-1.0155,-1.0115,-1.0089,-1.0084,-1.0039,-1.0023,-0.9991,-0.9968,-0.9945,-0.9899,-0.9874,-0.9856,-0.9847,-0.9832,-0.984,-0.9846,-0.9831,-0.9831,-0.9831,-0.9828,-0.9827,-0.9839,-0.9839,-0.9839,0,-1.0249,-1.0207,-1.0174,-1.0147,-1.0126,-1.0096,-1.0074,-1.005,-1.0004,-0.999,-0.9986,-0.9926,-0.99,-0.9866,-0.9864,-0.985,-0.9843,-0.9844,-0.9834,-0.9833,-0.9833,-0.9829,-0.9828,-0.984,-0.984,-0.984,-0.9839,0,-1.0229,-1.02,-1.0188,-1.0141,-1.0118,-1.0095,-1.0059,-1.004,-1.0021,-0.9997,-0.9965,-0.9933,-0.9898,-0.9888,-0.9871,-0.9851,-0.985,-0.984,-0.9833,-0.9834,-0.983,-0.9828,-0.9841,-0.9841,-0.9841,-0.984,0,0,-1.0253,-1.0186,-1.0182,-1.016,-1.0112,-1.009,-1.0065,-1.0029,-1.0013,-0.9982,-0.9961,-0.9922,-0.9911,-0.9891,-0.987,-0.9857,-0.9852,-0.9849,-0.9847,-0.985,-0.9828,-0.9835,-0.9834,-0.9841,-0.9841,-0.984,-0.9831,0,-1.0248,-1.02,-1.0168,-1.0133,-1.0106,-1.0076,-1.0054,-1.0023,-0.9999,-0.9974,-0.9948,-0.992,-0.991,-0.9897,-0.9882,-0.9855,-0.9847,-0.9856,-0.9821,-0.9821,-0.9831,-0.9832,-0.984,-0.9832,-0.9829,-0.9829,-0.9828,0,-1.0237,-1.0204,-1.0165,-1.0119,-1.0106,-1.0087,-1.005,-1.0026,-0.9991,-0.9974,-0.995,-0.9928,-0.9902,-0.9896,-0.9859,-0.9866,-0.985,-0.9835,-0.9834,-0.983,-0.9825,-0.9827,-0.9829,-0.9828,-0.9826,-0.9826,-0.9826,0,-1.0257,-1.0204,-1.0173,-1.0155,-1.0101,-1.0088,-1.0065,-1.0029,-1.0009,-0.9977,-0.9964,-0.9931,-0.9913,-0.9888,-0.9859,-0.9858,-0.9825,-0.9817,-0.9811,-0.9812,-0.9805,-0.9806,-0.9804,-0.9796,-0.9796,-0.9796,-0.9796,0,-1.0256,-1.0233,-1.0181,-1.0162,-1.0136,-1.01,-1.0076,-1.0051,-1.0019,-0.9996,-0.9969,-0.9948,-0.991,-0.9885,-0.9862,-0.9834,-0.9827,-0.9813,-0.9807,-0.9815,-0.9817,-0.9804,-0.9804,-0.9795,-0.9796,-0.9796,-0.9796,0,-1.0275,-1.0239,-1.0203,-1.0153,-1.0141,-1.0123,-1.0082,-1.0063,-1.0037,-1.0007,-0.9999,-0.9958,-0.9927,-0.9895,-0.9853,-0.9838,-0.9811,-0.9803,-0.9822,-0.9819,-0.9814,-0.9815,-0.9804,-0.9801,-0.9795,-0.9795,-0.9795,0,-1.0276,-1.0257,-1.0205,-1.0186,-1.0163,-1.0133,-1.0112,-1.0076,-1.0055,-1.0012,-0.9998,-0.9964,-0.9935,-0.9887,-0.9855,-0.9823,-0.9814,-0.9812,-0.9809,-0.9817,-0.9813,-0.9815,-0.9812,-0.9814,-0.9814,-0.9814,-0.9814,0,-1.0282,-1.0264,-1.0233,-1.0195,-1.0169,-1.0138,-1.0107,-1.0093,-1.0051,-1.0029,-0.9995,-0.9972,-0.9928,-0.9895,-0.9859,-0.9837,-0.9819,-0.9815,-0.9812,-0.982,-0.9832,-0.9825,-0.9825,-0.9816,-0.9816,-0.9816,-0.9815,-0.9815,-1.0292,-1.0273,-1.0232,-1.0198,-1.017,-1.014,-1.0119,-1.009,-1.006,-1.002,-1.0001,-0.9967,-0.9931,-0.988,-0.9858,-0.9832,-0.9827,-0.9823,-0.9822,-0.9821,-0.9823,-0.9835,-0.9826,-0.9826,-0.9826,-0.9826,-0.9826,0,-1.0296,-1.0267,-1.0236,-1.0191,-1.0164,-1.0147,-1.011,-1.0089,-1.0059,-1.0026,-0.9997,-0.9958,-0.9925,-0.989,-0.9856,-0.9841,-0.9832,-0.9834,-0.9834,-0.9829,-0.9829,-0.9835,-0.9842,-0.9842,-0.9842,-0.9842,-0.9842,-0.9842,-1.0295,-1.0262,-1.024,-1.0193,-1.0165,-1.013,-1.011,-1.0083,-1.0056,-1.0013,-0.9984,-0.9961,-0.9927,-0.9889,-0.9859,-0.9849,-0.9838,-0.9842,-0.983,-0.9831,-0.983,-0.9829,-0.9834,-0.984,-0.984,-0.9832,-0.9832,-0.9832]},{"header":{"parameterUnit":"m.s-1","parameterCategory":1,"la1":30.2991,"la2":30.254,"lo1":-89.0895,"lo2":-89.0444,"dy":0.0017,"dx":0.0017,"nx":28,"ny":28,"refTime":"2026-02-16T09:00:00:Z","depth":0,"parameterNumber":3,"parameterNumberName":"V-component_of_WINDS"},"data":[0,0,0,0,0,0,0,0,0,0,0,0,0,0,0,0,0,0,0,0,0,0,0,0,0,0,0,0,0,0,0,0,0,0,0,0,0,0,0,0,0,0,0,0,0,0,0,0,0,0,0,0,0,0,0,0,0,0,1.932,1.9319,0,1.9265,1.9264,1.9264,1.925,1.9251,1.9251,1.9251,1.9195,1.9194,1.9192,0,0,0,0,0,0,0,0,0,0,0,0,0,1.9413,1.9411,1.932,1.9319,1.9318,1.9265,1.9264,1.9263,1.925,1.9251,1.9251,1.9251,1.9196,1.9194,1.9192,0,0,0,0,0,0,0,0,0,0,0,0,0,1.9367,1.9411,1.932,1.9305,1.9304,1.9265,1.9264,1.9263,1.925,1.9251,1.9251,1.9252,1.9197,1.9194,1.9191,1.9164,0,0,1.9183,1.9182,0,0,0,0,0,0,0,0,1.9369,1.9363,1.9308,1.9306,1.9304,1.9265,1.9277,1.923,1.925,1.927,1.9251,1.9252,1.9218,1.9214,1.9202,1.9161,1.9159,1.9183,1.9181,1.918,1.9179,0,0,0,0,0,0,0,1.9373,1.9366,1.9298,1.9307,1.9305,1.9301,1.9296,1.9268,1.9242,1.9269,1.9268,1.9261,1.9217,1.9205,1.9201,1.9158,1.9183,1.918,1.9179,1.9178,1.909,1.909,0,0,0,0,0,0,1.9378,1.9368,1.93,1.9296,1.9339,1.9299,1.9293,1.9277,1.9242,1.9237,1.9261,1.9261,1.9209,1.9204,1.9199,1.9164,1.918,1.9177,1.9176,1.9091,1.909,1.9089,0,0,0,0,0,0,1.9381,1.9372,1.9302,1.9332,1.9323,1.9297,1.928,1.9276,1.9263,1.9236,1.9232,1.9253,1.9209,1.9203,1.9172,1.9162,1.9176,1.9174,1.9092,1.9091,1.909,1.9093,0,0,0,0,0,0,1.9383,1.9373,1.9363,1.9332,1.9321,1.9277,1.9279,1.9274,1.9259,1.9258,1.9228,1.9223,1.9209,1.9176,1.917,1.9158,1.9172,1.9093,1.9091,1.909,1.9094,1.9093,1.9091,0,0,0,0,0,1.9387,1.9366,1.9362,1.9354,1.9307,1.9276,1.927,1.9254,1.9258,1.9247,1.9229,1.9224,1.9164,1.9173,1.9166,1.9153,1.9093,1.9092,1.909,1.9095,1.9093,1.9091,0,0,0,0,0,0,1.9397,1.9362,1.9357,1.9326,1.9304,1.9274,1.926,1.9253,1.923,1.923,1.9212,1.9205,1.9176,1.9161,1.9173,1.9124,1.9128,1.9125,1.9135,1.9133,1.9131,1.9136,1.9169,0,0,0,0,0,1.9395,1.9373,1.9343,1.9319,1.9308,1.9286,1.9271,1.9261,1.9238,1.9228,1.9209,1.9186,1.9162,1.9146,1.9123,1.9092,1.9085,1.9079,1.9078,1.9077,1.9074,1.9056,1.9054,1.9084,1.9084,1.9084,0,0,1.9392,1.937,1.9357,1.932,1.9302,1.9279,1.9278,1.9254,1.9236,1.9225,1.9195,1.9179,1.9153,1.9122,1.9107,1.9109,1.9064,1.9075,1.9074,1.9072,1.9055,1.9052,1.9049,1.9083,1.9083,1.9084,0,0,1.9375,1.9356,1.9333,1.9315,1.9287,1.9272,1.9266,1.9237,1.9226,1.9196,1.9186,1.9165,1.9124,1.9105,1.909,1.9065,1.9059,1.9057,1.905,1.9033,1.9031,1.9029,1.9019,1.9016,1.9055,1.9055,1.9055,0,1.9375,1.9339,1.9322,1.9298,1.9282,1.927,1.9247,1.9229,1.9195,1.9184,1.9187,1.9134,1.9115,1.908,1.9073,1.9062,1.9055,1.9061,1.9032,1.903,1.9028,1.9019,1.9015,1.9055,1.9055,1.9055,1.9055,0,1.934,1.9316,1.9301,1.9268,1.925,1.9226,1.9206,1.9189,1.918,1.9165,1.9134,1.9111,1.9082,1.9073,1.9064,1.9036,1.9037,1.9036,1.904,1.9025,1.9016,1.9013,1.9055,1.9055,1.9055,1.9055,0,0,1.9329,1.9286,1.9281,1.9265,1.9233,1.9214,1.9189,1.9161,1.9147,1.9124,1.9103,1.9068,1.9066,1.9049,1.9038,1.9023,1.9003,1.9023,1.9022,1.902,1.897,1.8972,1.8968,1.8999,1.8998,1.8998,1.8973,0,1.9308,1.9264,1.9247,1.9211,1.9188,1.9176,1.9154,1.9132,1.9117,1.9095,1.9078,1.9054,1.9053,1.9043,1.9027,1.9009,1.8993,1.9011,1.8979,1.8979,1.8987,1.8963,1.8965,1.8943,1.8969,1.8968,1.8968,0,1.9278,1.9253,1.9215,1.9185,1.9175,1.9156,1.9128,1.9107,1.9081,1.9071,1.9052,1.9041,1.9015,1.902,1.8983,1.8995,1.8981,1.897,1.8969,1.8966,1.8973,1.896,1.8935,1.8932,1.8962,1.8963,1.8963,0,1.9273,1.9231,1.9202,1.9189,1.9154,1.9141,1.9125,1.91,1.9083,1.9059,1.9048,1.9021,1.9006,1.8985,1.8967,1.8973,1.8932,1.8936,1.8923,1.8923,1.8915,1.8916,1.8888,1.8906,1.8906,1.8906,1.8906,0,1.9252,1.9229,1.92,1.9182,1.9156,1.9137,1.9111,1.9095,1.9072,1.9051,1.9038,1.9019,1.8996,1.8974,1.8959,1.8931,1.8924,1.8915,1.8912,1.8917,1.8918,1.8908,1.8909,1.8905,1.8905,1.8905,1.8905,0,1.9243,1.9223,1.9191,1.9159,1.915,1.9132,1.9105,1.9087,1.9071,1.9044,1.9037,1.9012,1.8984,1.8964,1.8929,1.8919,1.8889,1.8885,1.8897,1.8896,1.8884,1.8886,1.8849,1.8843,1.8864,1.8864,1.8864,0,1.9231,1.9213,1.9179,1.9164,1.9148,1.9124,1.9107,1.9087,1.907,1.9038,1.9024,1.8996,1.8972,1.8929,1.8907,1.888,1.8876,1.8865,1.8872,1.8877,1.8876,1.8877,1.8875,1.8864,1.8864,1.8864,1.8864,0,1.9212,1.9202,1.9178,1.915,1.913,1.9107,1.9084,1.9073,1.9048,1.903,1.9001,1.8983,1.8946,1.8918,1.8888,1.8872,1.8864,1.8861,1.8857,1.8862,1.887,1.8866,1.8895,1.8863,1.8863,1.8863,1.8863,1.8863,1.9201,1.9184,1.9157,1.9131,1.9111,1.909,1.9071,1.9052,1.9028,1.8997,1.8986,1.8957,1.8931,1.889,1.8873,1.885,1.885,1.8844,1.8842,1.8841,1.8841,1.8873,1.8844,1.8844,1.8844,1.8844,1.8844,0,1.9181,1.9163,1.9139,1.9107,1.9086,1.9079,1.9053,1.9036,1.901,1.8986,1.8962,1.8929,1.8902,1.8877,1.8848,1.8834,1.883,1.8827,1.8829,1.8825,1.8842,1.8849,1.8832,1.8832,1.8832,1.8832,1.8832,1.8832,1.9169,1.914,1.9127,1.9088,1.907,1.9041,1.9026,1.9006,1.8987,1.895,1.8927,1.8911,1.8887,1.8856,1.883,1.8824,1.8814,1.8812,1.8805,1.8822,1.8824,1.8825,1.8831,1.881,1.881,1.8789,1.8789,1.8789]}]]